| time (UTC) | temp F | wind direction | speed MPH | gust MPH | rain 1hr in | rain 24hr in | rain mn in | humidity % | barometer mb |
| 20260906102939 | 60 | 106 | 1.0 | 3.0 | 0.00 | 0.00 | 0.00 | 97 | 1023.6 |
| 20260906102438 | 60 | 133 | 2.0 | 4.0 | 0.00 | 0.00 | 0.00 | 96 | 1023.7 |
| 20260906101933 | 59 | 223 | 1.0 | 4.0 | 0.00 | 0.00 | 0.00 | 98 | 1023.6 |
| 20260906101429 | 59 | 191 | 2.0 | 4.0 | 0.00 | 0.00 | 0.00 | 99 | 1023.7 |
| 20260906100924 | 59 | 143 | 1.0 | 2.0 | 0.00 | 0.00 | 0.00 | 99 | 1023.5 |
| 20260906100423 | 59 | 109 | 2.0 | 4.0 | 0.00 | 0.00 | 0.00 | 99 | 1023.7 |
| 20260906095918 | 59 | 193 | 1.0 | 3.0 | 0.00 | 0.00 | 0.00 | 99 | 1023.6 |
| 20260906095414 | 59 | 168 | 1.0 | 6.0 | 0.00 | 0.00 | 0.00 | 99 | 1023.6 |
| 20260906094913 | 59 | 208 | 1.0 | 4.0 | 0.00 | 0.00 | 0.00 | 99 | 1023.6 |
| 20260906094408 | 59 | 184 | 3.0 | 7.0 | 0.00 | 0.00 | 0.00 | 99 | 1023.6 |
| 20260906093904 | 60 | 165 | 1.0 | 4.0 | 0.00 | 0.00 | 0.00 | 99 | 1023.7 |
| 20260906093400 | 60 | 103 | 3.0 | 6.0 | 0.00 | 0.00 | 0.00 | 99 | 1023.6 |
| 20260906092854 | 60 | 96 | 4.0 | 6.0 | 0.00 | 0.00 | 0.00 | 98 | 1023.6 |
| 20260906092349 | 61 | 162 | 1.0 | 7.0 | 0.00 | 0.00 | 0.00 | 97 | 1023.5 |
| 20260906091844 | 61 | 302 | 4.0 | 7.0 | 0.00 | 0.00 | 0.00 | 95 | 1023.6 |
| 20260906091341 | 61 | 100 | 2.0 | 6.0 | 0.00 | 0.00 | 0.00 | 94 | 1023.6 |
| 20260906090837 | 61 | 170 | 4.0 | 6.0 | 0.00 | 0.00 | 0.00 | 95 | 1023.6 |
| 20260906090336 | 61 | 178 | 1.0 | 3.0 | 0.00 | 0.00 | 0.00 | 97 | 1023.6 |
| 20260906085830 | 61 | 156 | 2.0 | 3.0 | 0.00 | 0.00 | 0.00 | 96 | 1023.6 |
| 20260906085329 | 61 | 177 | 1.0 | 3.0 | 0.00 | 0.00 | 0.00 | 96 | 1023.7 |
| 20260906084824 | 61 | 141 | 2.0 | 6.0 | 0.00 | 0.00 | 0.00 | 96 | 1023.6 |
| 20260906084324 | 61 | 183 | 3.0 | 4.0 | 0.00 | 0.00 | 0.00 | 95 | 1023.7 |
| 20260906083819 | 61 | 211 | 2.0 | 3.0 | 0.00 | 0.00 | 0.00 | 95 | 1023.6 |
| 20260906083314 | 61 | 137 | 1.0 | 2.0 | 0.00 | 0.00 | 0.00 | 95 | 1023.6 |
| 20260906082808 | 61 | 147 | 2.0 | 3.0 | 0.00 | 0.00 | 0.00 | 94 | 1023.7 |
| 20260906082306 | 61 | 76 | 1.0 | 3.0 | 0.00 | 0.00 | 0.00 | 95 | 1023.7 |
| 20260906081759 | 61 | 200 | 0.0 | 4.0 | 0.00 | 0.00 | 0.00 | 93 | 1023.5 |
| 20260906081256 | 61 | 159 | 2.0 | 4.0 | 0.00 | 0.00 | 0.00 | 92 | 1023.4 |
| 20260906080752 | 62 | 179 | 1.0 | 3.0 | 0.00 | 0.00 | 0.00 | 92 | 1023.7 |
| 20260906080248 | 62 | 134 | 3.0 | 4.0 | 0.00 | 0.00 | 0.00 | 91 | 1023.3 |
| 20260906075747 | 62 | 143 | 3.0 | 4.0 | 0.00 | 0.00 | 0.00 | 91 | 1023.3 |
| 20260906075247 | 62 | 187 | 2.0 | 3.0 | 0.00 | 0.00 | 0.00 | 89 | 1023.3 |
| 20260906074743 | 62 | 156 | 1.0 | 4.0 | 0.00 | 0.00 | 0.00 | 90 | 1023.5 |
| 20260906074242 | 62 | 155 | 2.0 | 3.0 | 0.00 | 0.00 | 0.00 | 91 | 1023.4 |
| 20260906073742 | 62 | 169 | 1.0 | 3.0 | 0.00 | 0.00 | 0.00 | 90 | 1023.4 |
| 20260906073236 | 62 | 174 | 1.0 | 3.0 | 0.00 | 0.00 | 0.00 | 89 | 1023.6 |
| 20260906072732 | 62 | 123 | 2.0 | 2.0 | 0.00 | 0.00 | 0.00 | 89 | 1023.4 |
| 20260906072228 | 62 | 214 | 1.0 | 2.0 | 0.00 | 0.00 | 0.00 | 88 | 1023.5 |
| 20260906071723 | 62 | 169 | 0.0 | 2.0 | 0.00 | 0.00 | 0.00 | 90 | 1023.6 |
| 20260906071224 | 62 | 192 | 2.0 | 3.0 | 0.00 | 0.00 | 0.00 | 90 | 1023.5 |
| 20260906070720 | 62 | 115 | 2.0 | 3.0 | 0.00 | 0.00 | 0.00 | 90 | 1023.6 |
| 20260906070215 | 62 | 164 | 1.0 | 4.0 | 0.00 | 0.00 | 0.00 | 89 | 1023.6 |
| 20260906065715 | 62 | 195 | 0.0 | 3.0 | 0.00 | 0.00 | 0.00 | 88 | 1023.7 |
| 20260906065210 | 63 | 165 | 2.0 | 4.0 | 0.00 | 0.00 | 0.00 | 86 | 1023.6 |
| 20260906064706 | 63 | 127 | 1.0 | 3.0 | 0.00 | 0.00 | 0.00 | 84 | 1023.8 |
| 20260906064201 | 63 | 197 | 1.0 | 3.0 | 0.00 | 0.00 | 0.00 | 83 | 1023.6 |
| 20260906063656 | 63 | 96 | 3.0 | 4.0 | 0.00 | 0.00 | 0.00 | 82 | 1023.5 |
| 20260906063152 | 63 | 44 | 1.0 | 2.0 | 0.00 | 0.00 | 0.00 | 82 | 1023.5 |
| 20260906062648 | 63 | 164 | 1.0 | 2.0 | 0.00 | 0.00 | 0.00 | 82 | 1023.3 |
| 20260906062146 | 64 | 156 | 3.0 | 4.0 | 0.00 | 0.00 | 0.00 | 79 | 1023.4 |
| 20260906061643 | 64 | 166 | 3.0 | 4.0 | 0.00 | 0.00 | 0.00 | 79 | 1023.3 |
| 20260906061142 | 64 | 179 | 3.0 | 6.0 | 0.00 | 0.00 | 0.00 | 79 | 1023.3 |
| 20260906060639 | 64 | 168 | 1.0 | 3.0 | 0.00 | 0.00 | 0.00 | 79 | 1023.3 |
| 20260906060136 | 64 | 157 | 2.0 | 4.0 | 0.00 | 0.00 | 0.00 | 79 | 1023.2 |
| 20260906055631 | 64 | 197 | 1.0 | 3.0 | 0.00 | 0.00 | 0.00 | 81 | 1023.2 |
| 20260906055126 | 64 | 154 | 2.0 | 4.0 | 0.00 | 0.00 | 0.00 | 82 | 1023.3 |
| 20260906054621 | 63 | 182 | 5.0 | 7.0 | 0.00 | 0.00 | 0.00 | 84 | 1023.1 |
| 20260906054116 | 63 | 204 | 1.0 | 4.0 | 0.00 | 0.00 | 0.00 | 85 | 1023.2 |
| 20260906053613 | 63 | 123 | 3.0 | 4.0 | 0.00 | 0.00 | 0.00 | 86 | 1023.0 |
| 20260906053108 | 63 | 92 | 2.0 | 4.0 | 0.00 | 0.00 | 0.00 | 87 | 1023.0 |
| 20260906052604 | 63 | 205 | 2.0 | 4.0 | 0.00 | 0.00 | 0.00 | 87 | 1023.1 |
| 20260906052100 | 63 | 135 | 1.0 | 6.0 | 0.00 | 0.00 | 0.00 | 86 | 1023.1 |
| 20260906051556 | 64 | 165 | 3.0 | 4.0 | 0.00 | 0.00 | 0.00 | 86 | 1023.0 |
| 20260906051051 | 64 | 151 | 3.0 | 3.0 | 0.00 | 0.00 | 0.00 | 85 | 1023.0 |
| 20260906050546 | 64 | 114 | 2.0 | 7.0 | 0.00 | 0.00 | 0.00 | 85 | 1023.0 |
| 20260906050041 | 63 | 139 | 2.0 | 6.0 | 0.00 | 0.00 | 0.00 | 87 | 1022.9 |
| 20260906045539 | 64 | 154 | 2.0 | 4.0 | 0.00 | 0.00 | 0.00 | 87 | 1023.0 |
| 20260906045035 | 64 | 189 | 2.0 | 4.0 | 0.00 | 0.00 | 0.00 | 87 | 1022.8 |
| 20260906044531 | 64 | 106 | 2.0 | 4.0 | 0.00 | 0.00 | 0.00 | 87 | 1022.8 |
| 20260906044026 | 63 | 145 | 2.0 | 7.0 | 0.00 | 0.00 | 0.00 | 87 | 1022.9 |
| 20260906043521 | 63 | 167 | 2.0 | 4.0 | 0.00 | 0.00 | 0.00 | 89 | 1023.0 |
| 20260906043018 | 63 | 126 | 2.0 | 8.0 | 0.00 | 0.00 | 0.00 | 89 | 1023.0 |
| 20260906042516 | 63 | 153 | 2.0 | 3.0 | 0.00 | 0.00 | 0.00 | 90 | 1023.0 |
| 20260906042011 | 63 | 176 | 1.0 | 4.0 | 0.00 | 0.00 | 0.00 | 90 | 1022.9 |
| 20260906041508 | 63 | 148 | 2.0 | 3.0 | 0.00 | 0.00 | 0.00 | 90 | 1023.1 |
| 20260906041007 | 63 | 164 | 2.0 | 4.0 | 0.00 | 0.00 | 0.00 | 91 | 1022.8 |
| 20260906040502 | 63 | 184 | 1.0 | 6.0 | 0.00 | 0.00 | 0.00 | 92 | 1023.0 |
| 20260906035957 | 63 | 190 | 2.0 | 4.0 | 0.00 | 0.00 | 0.00 | 93 | 1022.9 |
| 20260906035453 | 63 | 156 | 2.0 | 7.0 | 0.00 | 0.00 | 0.00 | 93 | 1023.0 |
| 20260906034949 | 63 | 112 | 2.0 | 6.0 | 0.00 | 0.00 | 0.00 | 94 | 1022.8 |
| 20260906034449 | 63 | 182 | 1.0 | 7.0 | 0.00 | 0.00 | 0.00 | 95 | 1022.9 |
| 20260906033944 | 63 | 184 | 1.0 | 6.0 | 0.00 | 0.00 | 0.00 | 96 | 1022.8 |
| 20260906033444 | 63 | 179 | 2.0 | 6.0 | 0.00 | 0.00 | 0.00 | 97 | 1022.9 |
| 20260906032940 | 63 | 102 | 4.0 | 6.0 | 0.00 | 0.00 | 0.00 | 98 | 1022.8 |
| 20260906032437 | 63 | 158 | 3.0 | 4.0 | 0.00 | 0.00 | 0.00 | 98 | 1022.7 |
| 20260906031936 | 63 | 79 | 3.0 | 6.0 | 0.00 | 0.00 | 0.00 | 98 | 1022.8 |
| 20260906031432 | 63 | 173 | 2.0 | 3.0 | 0.00 | 0.00 | 0.00 | 98 | 1022.7 |
| 20260906030927 | 63 | 204 | 4.0 | 6.0 | 0.00 | 0.00 | 0.00 | 98 | 1022.8 |
| 20260906030422 | 63 | 76 | 3.0 | 6.0 | 0.00 | 0.00 | 0.00 | 97 | 1022.7 |
| 20260906025916 | 63 | 104 | 3.0 | 6.0 | 0.00 | 0.00 | 0.00 | 97 | 1022.7 |
| 20260906025410 | 63 | 143 | 4.0 | 9.0 | 0.00 | 0.00 | 0.00 | 96 | 1022.6 |
| 20260906024909 | 63 | 148 | 2.0 | 4.0 | 0.00 | 0.00 | 0.00 | 96 | 1022.6 |
| 20260906024408 | 63 | 164 | 3.0 | 9.0 | 0.00 | 0.00 | 0.00 | 95 | 1022.8 |
| 20260906023904 | 63 | 122 | 3.0 | 4.0 | 0.00 | 0.00 | 0.00 | 94 | 1022.7 |
| 20260906023400 | 64 | 173 | 2.0 | 7.0 | 0.00 | 0.00 | 0.00 | 93 | 1022.9 |
| 20260906022854 | 64 | 104 | 2.0 | 6.0 | 0.00 | 0.00 | 0.00 | 93 | 1022.7 |
| 20260906022349 | 64 | 111 | 4.0 | 6.0 | 0.00 | 0.00 | 0.00 | 92 | 1022.6 |
| 20260906021846 | 64 | 140 | 1.0 | 6.0 | 0.00 | 0.00 | 0.00 | 90 | 1022.6 |
| 20260906021345 | 64 | 149 | 2.0 | 4.0 | 0.00 | 0.00 | 0.00 | 89 | 1022.7 |
| 20260906020840 | 64 | 90 | 1.0 | 7.0 | 0.00 | 0.00 | 0.00 | 87 | 1022.6 |
| 20260906020339 | 64 | 122 | 2.0 | 4.0 | 0.00 | 0.00 | 0.00 | 86 | 1022.8 |
| 20260906015834 | 64 | 182 | 1.0 | 4.0 | 0.00 | 0.00 | 0.00 | 84 | 1022.7 |
| 20260906015333 | 65 | 86 | 2.0 | 4.0 | 0.00 | 0.00 | 0.00 | 83 | 1022.8 |
| 20260906014832 | 65 | 100 | 5.0 | 8.0 | 0.00 | 0.00 | 0.00 | 82 | 1022.4 |
| 20260906014322 | 65 | 195 | 2.0 | 3.0 | 0.00 | 0.00 | 0.00 | 82 | 1022.6 |
| 20260906013818 | 65 | 127 | 3.0 | 6.0 | 0.00 | 0.00 | 0.00 | 81 | 1022.5 |
| 20260906013313 | 65 | 180 | 3.0 | 8.0 | 0.00 | 0.00 | 0.00 | 81 | 1022.5 |
| 20260906012809 | 65 | 100 | 2.0 | 3.0 | 0.00 | 0.00 | 0.00 | 81 | 1022.6 |
| 20260906012309 | 65 | 116 | 2.0 | 4.0 | 0.00 | 0.00 | 0.00 | 80 | 1022.5 |
| 20260906011804 | 65 | 174 | 3.0 | 6.0 | 0.00 | 0.00 | 0.00 | 80 | 1022.5 |
| 20260906011304 | 66 | 109 | 2.0 | 4.0 | 0.00 | 0.00 | 0.00 | 79 | 1022.5 |
| 20260906010800 | 66 | 136 | 1.0 | 4.0 | 0.00 | 0.00 | 0.00 | 79 | 1022.4 |
| 20260906010256 | 66 | 139 | 2.0 | 6.0 | 0.00 | 0.00 | 0.00 | 80 | 1022.3 |
| 20260906005751 | 66 | 119 | 2.0 | 4.0 | 0.00 | 0.00 | 0.00 | 81 | 1022.4 |
| 20260906005249 | 66 | 115 | 2.0 | 3.0 | 0.00 | 0.00 | 0.00 | 81 | 1022.4 |
| 20260906004743 | 66 | 174 | 1.0 | 6.0 | 0.00 | 0.00 | 0.00 | 80 | 1022.3 |
| 20260906004239 | 66 | 188 | 2.0 | 4.0 | 0.00 | 0.00 | 0.00 | 79 | 1022.6 |
| 20260906003738 | 66 | 187 | 0.0 | 2.0 | 0.00 | 0.00 | 0.00 | 79 | 1022.3 |
| 20260906003234 | 67 | 167 | 2.0 | 4.0 | 0.00 | 0.00 | 0.00 | 78 | 1022.6 |
| 20260906002729 | 67 | 160 | 3.0 | 3.0 | 0.00 | 0.00 | 0.00 | 77 | 1022.5 |
| 20260906002228 | 67 | 114 | 1.0 | 3.0 | 0.00 | 0.00 | 0.00 | 76 | 1022.6 |
| 20260906001724 | 68 | 126 | 1.0 | 3.0 | 0.00 | 0.00 | 0.00 | 76 | 1022.4 |
| 20260906001219 | 68 | 155 | 2.0 | 3.0 | 0.00 | 0.00 | 0.00 | 75 | 1022.4 |
| 20260906000714 | 68 | 105 | 2.0 | 2.0 | 0.00 | 0.00 | 0.00 | 74 | 1022.5 |
| 20260906000212 | 69 | 124 | 1.0 | 3.0 | 0.00 | 0.00 | 0.00 | 73 | 1022.5 |
| 20260905235709 | 69 | 147 | 1.0 | 3.0 | 0.00 | 0.00 | 0.00 | 72 | 1022.6 |
| 20260905235204 | 70 | 183 | 2.0 | 7.0 | 0.00 | 0.00 | 0.00 | 71 | 1022.5 |
| 20260905234659 | 70 | 72 | 1.0 | 2.0 | 0.00 | 0.00 | 0.00 | 71 | 1022.7 |
| 20260905234154 | 70 | 165 | 2.0 | 7.0 | 0.00 | 0.00 | 0.00 | 70 | 1022.7 |
| 20260905233649 | 71 | 81 | 2.0 | 7.0 | 0.00 | 0.00 | 0.00 | 69 | 1022.5 |
| 20260905233148 | 71 | 196 | 2.0 | 3.0 | 0.00 | 0.00 | 0.00 | 69 | 1022.5 |
| 20260905232644 | 71 | 155 | 2.0 | 3.0 | 0.00 | 0.00 | 0.00 | 69 | 1022.6 |
| 20260905232139 | 71 | 171 | 4.0 | 7.0 | 0.00 | 0.00 | 0.00 | 68 | 1022.4 |
| 20260905231634 | 72 | 156 | 1.0 | 9.0 | 0.00 | 0.00 | 0.00 | 68 | 1022.6 |
| 20260905231131 | 72 | 165 | 3.0 | 4.0 | 0.00 | 0.00 | 0.00 | 67 | 1022.6 |
| 20260905230627 | 72 | 151 | 1.0 | 3.0 | 0.00 | 0.00 | 0.00 | 67 | 1022.5 |
| 20260905230124 | 73 | 104 | 5.0 | 6.0 | 0.00 | 0.00 | 0.00 | 66 | 1022.5 |
| 20260905225618 | 73 | 117 | 1.0 | 6.0 | 0.00 | 0.00 | 0.00 | 64 | 1022.6 |
| 20260905225113 | 74 | 74 | 3.0 | 4.0 | 0.00 | 0.00 | 0.00 | 64 | 1022.6 |
| 20260905224608 | 74 | 99 | 3.0 | 3.0 | 0.00 | 0.00 | 0.00 | 64 | 1022.8 |
| 20260905224107 | 74 | 66 | 3.0 | 8.0 | 0.00 | 0.00 | 0.00 | 65 | 1022.6 |
| 20260905223604 | 74 | 118 | 4.0 | 7.0 | 0.00 | 0.00 | 0.00 | 63 | 1022.7 |
| 20260905223100 | 74 | 178 | 4.0 | 7.0 | 0.00 | 0.00 | 0.00 | 62 | 1022.7 |
| 20260905222600 | 74 | 157 | 2.0 | 4.0 | 0.00 | 0.00 | 0.00 | 63 | 1022.9 |
| 20260905222055 | 75 | 116 | 4.0 | 6.0 | 0.00 | 0.00 | 0.00 | 63 | 1022.7 |
| 20260905221551 | 75 | 114 | 2.0 | 4.0 | 0.00 | 0.00 | 0.00 | 61 | 1022.3 |
| 20260905221047 | 75 | 167 | 2.0 | 6.0 | 0.00 | 0.00 | 0.00 | 62 | 1022.3 |
| 20260905220543 | 75 | 176 | 2.0 | 6.0 | 0.00 | 0.00 | 0.00 | 61 | 1022.2 |
| 20260905220039 | 76 | 176 | 2.0 | 3.0 | 0.00 | 0.00 | 0.00 | 61 | 1022.6 |
| 20260905215538 | 75 | 185 | 2.0 | 3.0 | 0.00 | 0.00 | 0.00 | 61 | 1022.4 |
| 20260905215034 | 76 | 177 | 1.0 | 3.0 | 0.00 | 0.00 | 0.00 | 60 | 1022.3 |
| 20260905214530 | 76 | 73 | 1.0 | 4.0 | 0.00 | 0.00 | 0.00 | 59 | 1022.6 |
| 20260905214025 | 76 | 124 | 4.0 | 7.0 | 0.00 | 0.00 | 0.00 | 61 | 1022.6 |
| 20260905213520 | 76 | 161 | 1.0 | 7.0 | 0.00 | 0.00 | 0.00 | 61 | 1022.3 |
| 20260905213016 | 77 | 225 | 1.0 | 3.0 | 0.00 | 0.00 | 0.00 | 60 | 1022.3 |
| 20260905212510 | 76 | 110 | 3.0 | 4.0 | 0.00 | 0.00 | 0.00 | 59 | 1022.2 |
| 20260905212010 | 77 | 164 | 3.0 | 4.0 | 0.00 | 0.00 | 0.00 | 58 | 1022.3 |
| 20260905211505 | 76 | 98 | 2.0 | 3.0 | 0.00 | 0.00 | 0.00 | 59 | 1022.4 |
| 20260905211001 | 76 | 83 | 2.0 | 2.0 | 0.00 | 0.00 | 0.00 | 59 | 1022.4 |
| 20260905210456 | 76 | 174 | 2.0 | 6.0 | 0.00 | 0.00 | 0.00 | 60 | 1022.3 |
| 20260905205955 | 76 | 73 | 2.0 | 3.0 | 0.00 | 0.00 | 0.00 | 60 | 1022.4 |
| 20260905205450 | 77 | 93 | 1.0 | 2.0 | 0.00 | 0.00 | 0.00 | 59 | 1022.6 |
| 20260905204949 | 76 | 109 | 3.0 | 4.0 | 0.00 | 0.00 | 0.00 | 59 | 1022.6 |
| 20260905204440 | 76 | 129 | 1.0 | 7.0 | 0.00 | 0.00 | 0.00 | 58 | 1022.6 |
| 20260905203939 | 76 | 175 | 2.0 | 3.0 | 0.00 | 0.00 | 0.00 | 58 | 1022.7 |
| 20260905203434 | 77 | 252 | 2.0 | 2.0 | 0.00 | 0.00 | 0.00 | 57 | 1022.6 |
| 20260905202930 | 77 | 159 | 3.0 | 7.0 | 0.00 | 0.00 | 0.00 | 59 | 1022.6 |
| 20260905202425 | 77 | 121 | 4.0 | 4.0 | 0.00 | 0.00 | 0.00 | 58 | 1022.8 |
| 20260905201920 | 77 | 197 | 1.0 | 2.0 | 0.00 | 0.00 | 0.00 | 60 | 1022.7 |
| 20260905201416 | 77 | 135 | 1.0 | 4.0 | 0.00 | 0.00 | 0.00 | 58 | 1022.6 |
| 20260905200915 | 77 | 154 | 1.0 | 3.0 | 0.00 | 0.00 | 0.00 | 58 | 1022.7 |
| 20260905200411 | 77 | 189 | 2.0 | 2.0 | 0.00 | 0.00 | 0.00 | 59 | 1022.7 |
| 20260905195909 | 77 | 94 | 3.0 | 6.0 | 0.00 | 0.00 | 0.00 | 59 | 1022.4 |
| 20260905195405 | 76 | 165 | 2.0 | 4.0 | 0.00 | 0.00 | 0.00 | 59 | 1022.3 |
| 20260905194900 | 77 | 185 | 4.0 | 6.0 | 0.00 | 0.00 | 0.00 | 59 | 1022.5 |
| 20260905194359 | 77 | 91 | 1.0 | 6.0 | 0.00 | 0.00 | 0.00 | 60 | 1022.5 |
| 20260905193854 | 77 | 212 | 3.0 | 3.0 | 0.00 | 0.00 | 0.00 | 61 | 1022.4 |
| 20260905193349 | 76 | 187 | 1.0 | 4.0 | 0.00 | 0.00 | 0.00 | 60 | 1022.4 |
| 20260905192844 | 76 | 115 | 2.0 | 6.0 | 0.00 | 0.00 | 0.00 | 61 | 1022.6 |
| 20260905192340 | 77 | 191 | 3.0 | 4.0 | 0.00 | 0.00 | 0.00 | 61 | 1022.7 |
| 20260905191839 | 76 | 222 | 4.0 | 7.0 | 0.00 | 0.00 | 0.00 | 63 | 1022.8 |
| 20260905191338 | 77 | 101 | 2.0 | 3.0 | 0.00 | 0.00 | 0.00 | 62 | 1022.9 |
| 20260905190837 | 76 | 103 | 1.0 | 1.0 | 0.00 | 0.00 | 0.00 | 63 | 1022.8 |
| 20260905190336 | 76 | 213 | 4.0 | 8.0 | 0.00 | 0.00 | 0.00 | 63 | 1022.8 |
| 20260905185835 | 76 | 202 | 2.0 | 3.0 | 0.00 | 0.00 | 0.00 | 63 | 1022.9 |
| 20260905185330 | 76 | 197 | 1.0 | 6.0 | 0.00 | 0.00 | 0.00 | 65 | 1022.8 |
| 20260905184824 | 76 | 169 | 1.0 | 1.0 | 0.00 | 0.00 | 0.00 | 65 | 1022.7 |
| 20260905184323 | 77 | 167 | 1.0 | 2.0 | 0.00 | 0.00 | 0.00 | 64 | 1022.9 |
| 20260905183821 | 76 | 193 | 1.0 | 3.0 | 0.00 | 0.00 | 0.00 | 64 | 1022.8 |
| 20260905183317 | 76 | 208 | 1.0 | 4.0 | 0.00 | 0.00 | 0.00 | 65 | 1022.9 |
| 20260905182812 | 76 | 104 | 5.0 | 7.0 | 0.00 | 0.00 | 0.00 | 64 | 1022.9 |
| 20260905182311 | 75 | 157 | 3.0 | 3.0 | 0.00 | 0.00 | 0.00 | 65 | 1023.0 |
| 20260905181807 | 76 | 232 | 3.0 | 4.0 | 0.00 | 0.00 | 0.00 | 63 | 1023.1 |
| 20260905181306 | 76 | 195 | 2.0 | 4.0 | 0.00 | 0.00 | 0.00 | 64 | 1022.9 |
| 20260905180801 | 76 | 208 | 1.0 | 2.0 | 0.00 | 0.00 | 0.00 | 65 | 1023.1 |
| 20260905180255 | 75 | 239 | 3.0 | 4.0 | 0.00 | 0.00 | 0.00 | 65 | 1023.2 |
| 20260905175750 | 75 | 204 | 4.0 | 6.0 | 0.00 | 0.00 | 0.00 | 66 | 1023.1 |
| 20260905175244 | 75 | 81 | 2.0 | 3.0 | 0.00 | 0.00 | 0.00 | 66 | 1023.2 |
| 20260905174739 | 75 | 110 | 4.0 | 4.0 | 0.00 | 0.00 | 0.00 | 65 | 1023.1 |
| 20260905174235 | 75 | 182 | 5.0 | 7.0 | 0.00 | 0.00 | 0.00 | 66 | 1023.0 |
| 20260905173731 | 75 | 87 | 3.0 | 7.0 | 0.00 | 0.00 | 0.00 | 67 | 1023.2 |
| 20260905173227 | 75 | 44 | 4.0 | 6.0 | 0.00 | 0.00 | 0.00 | 67 | 1023.2 |
| 20260905172727 | 75 | 158 | 3.0 | 6.0 | 0.00 | 0.00 | 0.00 | 67 | 1022.9 |
| 20260905172220 | 75 | 137 | 5.0 | 7.0 | 0.00 | 0.00 | 0.00 | 68 | 1023.1 |
| 20260905171716 | 75 | 69 | 2.0 | 3.0 | 0.00 | 0.00 | 0.00 | 68 | 1023.3 |
| 20260905171212 | 74 | 199 | 3.0 | 4.0 | 0.00 | 0.00 | 0.00 | 70 | 1023.4 |
| 20260905170710 | 73 | 106 | 2.0 | 4.0 | 0.00 | 0.00 | 0.00 | 70 | 1023.3 |
| 20260905170209 | 74 | 143 | 5.0 | 9.0 | 0.00 | 0.00 | 0.00 | 70 | 1023.6 |
| 20260905165709 | 74 | 162 | 3.0 | 6.0 | 0.00 | 0.00 | 0.00 | 71 | 1023.6 |
| 20260905165204 | 73 | 102 | 3.0 | 4.0 | 0.00 | 0.00 | 0.00 | 71 | 1023.6 |
| 20260905164654 | 73 | 173 | 3.0 | 3.0 | 0.00 | 0.00 | 0.00 | 71 | 1023.4 |
| 20260905164153 | 73 | 157 | 2.0 | 7.0 | 0.00 | 0.00 | 0.00 | 72 | 1023.7 |
| 20260905163649 | 73 | 191 | 3.0 | 6.0 | 0.00 | 0.00 | 0.00 | 71 | 1023.6 |
| 20260905163146 | 73 | 100 | 4.0 | 8.0 | 0.00 | 0.00 | 0.00 | 71 | 1023.5 |
| 20260905162642 | 73 | 164 | 2.0 | 7.0 | 0.00 | 0.00 | 0.00 | 73 | 1023.4 |
| 20260905162140 | 73 | 112 | 3.0 | 4.0 | 0.00 | 0.00 | 0.00 | 72 | 1023.4 |
| 20260905161635 | 73 | 142 | 3.0 | 4.0 | 0.00 | 0.00 | 0.00 | 74 | 1023.5 |
| 20260905161133 | 72 | 82 | 3.0 | 6.0 | 0.00 | 0.00 | 0.00 | 74 | 1023.4 |
| 20260905160632 | 72 | 90 | 2.0 | 3.0 | 0.00 | 0.00 | 0.00 | 74 | 1023.5 |
| 20260905160126 | 72 | 112 | 3.0 | 6.0 | 0.00 | 0.00 | 0.00 | 75 | 1023.5 |
| 20260905155621 | 73 | 104 | 3.0 | 7.0 | 0.00 | 0.00 | 0.00 | 73 | 1023.4 |
| 20260905155120 | 71 | 184 | 2.0 | 6.0 | 0.00 | 0.00 | 0.00 | 76 | 1023.4 |
| 20260905154619 | 71 | 115 | 1.0 | 4.0 | 0.00 | 0.00 | 0.00 | 76 | 1023.1 |
| 20260905154115 | 71 | 189 | 2.0 | 7.0 | 0.00 | 0.00 | 0.00 | 77 | 1023.2 |
| 20260905153611 | 71 | 117 | 2.0 | 4.0 | 0.00 | 0.00 | 0.00 | 77 | 1023.3 |
| 20260905153106 | 71 | 156 | 4.0 | 6.0 | 0.00 | 0.00 | 0.00 | 77 | 1023.3 |
| 20260905152601 | 70 | 188 | 1.0 | 3.0 | 0.00 | 0.00 | 0.00 | 78 | 1023.1 |
| 20260905152055 | 71 | 215 | 3.0 | 6.0 | 0.00 | 0.00 | 0.00 | 77 | 1023.3 |
| 20260905151551 | 70 | 172 | 1.0 | 6.0 | 0.00 | 0.00 | 0.00 | 78 | 1023.3 |
| 20260905151046 | 70 | 73 | 2.0 | 4.0 | 0.00 | 0.00 | 0.00 | 77 | 1023.2 |
| 20260905150541 | 70 | 104 | 2.0 | 6.0 | 0.00 | 0.00 | 0.00 | 78 | 1023.2 |
| 20260905150039 | 70 | 166 | 3.0 | 6.0 | 0.00 | 0.00 | 0.00 | 78 | 1023.3 |
| 20260905145532 | 69 | 134 | 1.0 | 3.0 | 0.00 | 0.00 | 0.00 | 78 | 1023.1 |
| 20260905145032 | 70 | 176 | 2.0 | 6.0 | 0.00 | 0.00 | 0.00 | 79 | 1023.1 |
| 20260905144527 | 69 | 124 | 2.0 | 7.0 | 0.00 | 0.00 | 0.00 | 79 | 1023.3 |
| 20260905144026 | 69 | 165 | 1.0 | 3.0 | 0.00 | 0.00 | 0.00 | 81 | 1023.2 |
| 20260905143525 | 69 | 96 | 5.0 | 8.0 | 0.00 | 0.00 | 0.00 | 79 | 1023.2 |
| 20260905143021 | 68 | 148 | 1.0 | 3.0 | 0.00 | 0.00 | 0.00 | 81 | 1023.2 |
| 20260905142519 | 68 | 148 | 2.0 | 7.0 | 0.00 | 0.00 | 0.00 | 81 | 1023.2 |
| 20260905142009 | 69 | 194 | 1.0 | 2.0 | 0.00 | 0.00 | 0.00 | 80 | 1023.2 |
| 20260905141508 | 68 | 148 | 0.0 | 1.0 | 0.00 | 0.00 | 0.00 | 80 | 1023.3 |
| 20260905141006 | 68 | 140 | 1.0 | 2.0 | 0.00 | 0.00 | 0.00 | 82 | 1023.2 |
| 20260905140500 | 68 | 233 | 1.0 | 2.0 | 0.00 | 0.00 | 0.00 | 82 | 1023.1 |
| 20260905135958 | 67 | 149 | 1.0 | 4.0 | 0.00 | 0.00 | 0.00 | 84 | 1023.1 |
| 20260905135455 | 67 | 108 | 2.0 | 3.0 | 0.00 | 0.00 | 0.00 | 85 | 1023.0 |
| 20260905134950 | 67 | 169 | 2.0 | 4.0 | 0.00 | 0.00 | 0.00 | 85 | 1022.8 |
| 20260905134449 | 67 | 155 | 1.0 | 2.0 | 0.00 | 0.00 | 0.00 | 85 | 1022.9 |
| 20260905133948 | 66 | 108 | 3.0 | 4.0 | 0.00 | 0.00 | 0.00 | 85 | 1022.8 |
| 20260905133444 | 67 | 144 | 1.0 | 3.0 | 0.00 | 0.00 | 0.00 | 85 | 1022.5 |
| 20260905132943 | 66 | 151 | 2.0 | 4.0 | 0.00 | 0.00 | 0.00 | 86 | 1022.5 |
| 20260905132438 | 66 | 158 | 2.0 | 6.0 | 0.00 | 0.00 | 0.00 | 85 | 1022.4 |
| 20260905131933 | 67 | 92 | 3.0 | 3.0 | 0.00 | 0.00 | 0.00 | 84 | 1022.6 |
| 20260905131430 | 66 | 171 | 1.0 | 2.0 | 0.00 | 0.00 | 0.00 | 85 | 1022.5 |
| 20260905130929 | 65 | 140 | 2.0 | 3.0 | 0.00 | 0.00 | 0.00 | 86 | 1022.5 |
| 20260905130423 | 65 | 93 | 4.0 | 4.0 | 0.00 | 0.00 | 0.00 | 86 | 1022.4 |
| 20260905125923 | 66 | 79 | 2.0 | 3.0 | 0.00 | 0.00 | 0.00 | 85 | 1022.3 |
| 20260905125418 | 65 | 164 | 1.0 | 1.0 | 0.00 | 0.00 | 0.00 | 87 | 1022.3 |
| 20260905124913 | 64 | 153 | 3.0 | 3.0 | 0.00 | 0.00 | 0.00 | 88 | 1022.1 |
| 20260905124410 | 64 | 193 | 1.0 | 1.0 | 0.00 | 0.00 | 0.00 | 91 | 1022.1 |
| 20260905123910 | 61 | 46 | 1.0 | 1.0 | 0.00 | 0.00 | 0.00 | 97 | 1022.2 |
| 20260905123407 | 61 | 46 | 1.0 | 2.0 | 0.00 | 0.00 | 0.00 | 97 | 1022.2 |
| 20260905122902 | 61 | 201 | 1.0 | 2.0 | 0.00 | 0.00 | 0.00 | 98 | 1022.2 |
| 20260905122400 | 60 | 182 | 0.0 | 1.0 | 0.00 | 0.00 | 0.00 | 99 | 1022.1 |
| 20260905121856 | 60 | 162 | 1.0 | 2.0 | 0.00 | 0.00 | 0.00 | 99 | 1022.1 |
| 20260905121353 | 60 | 190 | 0.0 | 2.0 | 0.00 | 0.00 | 0.00 | 99 | 1022.0 |
| 20260905120851 | 60 | 191 | 0.0 | 1.0 | 0.00 | 0.00 | 0.00 | 99 | 1021.9 |
| 20260905120346 | 59 | 186 | 0.0 | 2.0 | 0.00 | 0.00 | 0.00 | 99 | 1022.0 |
| 20260905115841 | 59 | 160 | 1.0 | 1.0 | 0.00 | 0.00 | 0.00 | 99 | 1021.8 |
| 20260905115341 | 59 | 88 | 2.0 | 2.0 | 0.00 | 0.00 | 0.00 | 99 | 1021.7 |
| 20260905114840 | 59 | 173 | 0.0 | 0.0 | 0.00 | 0.00 | 0.00 | 99 | 1021.5 |
| 20260905114334 | 59 | 79 | 1.0 | 2.0 | 0.00 | 0.00 | 0.00 | 99 | 1021.8 |
| 20260905113833 | 57 | 219 | 0.0 | 0.0 | 0.00 | 0.00 | 0.00 | 99 | 1021.8 |
| 20260905113329 | 57 | 219 | 0.0 | 0.0 | 0.00 | 0.00 | 0.00 | 99 | 1021.5 |
| 20260905112824 | 57 | 219 | 0.0 | 0.0 | 0.00 | 0.00 | 0.00 | 99 | 1021.7 |
| 20260905112319 | 57 | 219 | 0.0 | 0.0 | 0.00 | 0.00 | 0.00 | 99 | 1021.4 |
| 20260905111814 | 57 | 219 | 0.0 | 0.0 | 0.00 | 0.00 | 0.00 | 99 | 1021.7 |
| 20260905111308 | 57 | 219 | 0.0 | 0.0 | 0.00 | 0.00 | 0.00 | 99 | 1021.9 |
| 20260905110808 | 57 | 220 | 0.0 | 0.0 | 0.00 | 0.00 | 0.00 | 99 | 1021.7 |
| 20260905110302 | 57 | 220 | 0.0 | 0.0 | 0.00 | 0.00 | 0.00 | 99 | 1021.5 |
| 20260905105758 | 57 | 220 | 0.0 | 0.0 | 0.00 | 0.00 | 0.00 | 99 | 1021.5 |
| 20260905105257 | 57 | 220 | 0.0 | 0.0 | 0.00 | 0.00 | 0.00 | 99 | 1021.4 |
| 20260905104751 | 57 | 220 | 0.0 | 0.0 | 0.00 | 0.00 | 0.00 | 99 | 1021.8 |
| 20260905104248 | 57 | 220 | 0.0 | 0.0 | 0.00 | 0.00 | 0.00 | 99 | 1021.7 |
| 20260905103747 | 57 | 220 | 0.0 | 0.0 | 0.00 | 0.00 | 0.00 | 99 | 1021.5 |